Location: Del Oro Observatory
(38.3044°N, 104.8119°W)
Time: 19:21:00
(UTC-06:00)

Cosmos 1602 Rocket - Visible Passes

Search period start: 29 May 2017 00:00
Search period end: 08 June 2017 00:00
Orbit: 603 x 635 km, 82.5° (Epoch: 29 May)

Date Brightness Start Highest point End Pass type
(mag) Time Alt. Az. Time Alt. Az. Time Alt. Az.
29 May 5.5 21:14:04 11° E 21:15:12 12° E 21:16:46 10° ENE visible
29 May 4.2 22:51:12 36° SW 22:52:32 49° W 22:56:45 10° N visible
30 May 4.8 21:30:43 19° ESE 21:32:13 22° E 21:35:35 10° NE visible
30 May 5.4 23:07:49 18° WSW 23:09:55 26° WNW 23:13:33 10° NNW visible
31 May 3.9 21:47:18 25° SSE 21:49:20 43° E 21:53:25 10° NNE visible
31 May 6.2 23:25:06 10° WSW 23:27:24 14° WNW 23:29:42 10° NW visible
01 Jun 3.4 22:03:49 23° S 22:06:32 87° E 22:10:52 10° N visible
02 Jun 5.5 20:44:40 10° ESE 20:46:27 12° E 20:48:15 10° ENE visible
02 Jun 4.4 22:20:18 14° SSW 22:23:49 47° W 22:28:00 10° N visible
03 Jun 4.8 21:00:03 10° SE 21:03:29 23° E 21:06:55 10° NE visible
03 Jun 5.6 22:37:40 10° SW 22:41:13 25° WNW 22:44:46 10° NNW visible
04 Jun 3.9 21:16:29 10° SSE 21:20:36 45° E 21:24:44 10° NNE visible
04 Jun 6.3 22:56:35 10° W 22:58:42 13° WNW 23:00:51 10° NW visible
05 Jun 3.5 21:33:29 10° S 21:37:48 89° W 21:42:09 10° N visible
06 Jun 4.6 21:50:59 10° SSW 21:55:06 44° W 21:59:15 10° N visible
07 Jun 5.8 22:09:01 10° SW 22:12:30 23° WNW 22:16:00 10° NNW visible
